Regional Weather Roundup
Issued by NWS

Home | Current Version | Previous Version | Text Only | Print | Product List | Glossary On
Versions: 1 2 3 4 5 6 7 8 9 10 11 12 13 14 15 16 17 18 19 20 21 22 23 24 25 26 27 28 29 30 31 32 33 34 35 36 37 38 39 40 41 42 43 44 45 46 47 48 49 50
000
ASUS46 KPQR 100410
RWROR

OREGON REGIONAL WEATHER ROUNDUP
NATIONAL WEATHER SERVICE PORTLAND OR
800 PM PST TUE FEB 09 2016

NOTE: "FAIR" INDICATES FEW OR NO CLOUDS BELOW 12,000 FEET WITH
NO SIGNIFICANT WEATHER AND/OR OBSTRUCTIONS TO VISIBILITY.

ORZ001>013-100500-
NORTHWEST OREGON


CITY           SKY/WX    TMP DP  RH WIND       PRES   REMARKS
ASTORIA        PTCLDY    54  45  71 N3        30.11R
NEWPORT        CLEAR     50  43  76 S3        30.15R
PORTLAND       MOCLDY    52  39  61 SE13      30.15F
VANCOUVER WA   CLEAR     50  39  66 SE6       30.15F
SCAPPOOSE      CLEAR     45  41  86 NW3       30.15F
HILLSBORO      PTCLDY    46  40  79 CALM      30.15F
AURORA         CLEAR     49  43  80 CALM      30.16F
MCMINNVILLE    PTCLDY    49  43  80 NW3       30.15F
SALEM          PTCLDY    45  41  86 CALM      30.13F
CORVALLIS      PTCLDY    46  43  87 W5        30.16S
EUGENE         PTCLDY    44  42  93 E3        30.15F
$$

ORZ021-028-100500-
SOUTHWEST OREGON


CITY           SKY/WX    TMP DP  RH WIND       PRES   REMARKS
NORTH BEND     CLEAR     52  48  87 CALM      30.12S
BROOKINGS      CLEAR     58  44  60 E8        30.11F
ROSEBURG       PTCLDY    51  47  86 CALM      30.14F
SEXTON SUMMIT  CLEAR     52  33  48 S12       30.20F
MEDFORD        PTCLDY    55  43  63 CALM      30.16F
$$

ORZ014>016-041-100500-
COLUMBIA GORGE


CITY           SKY/WX    TMP DP  RH WIND       PRES   REMARKS
TROUTDALE      PTCLDY    52  39  61 E22G30    30.15F
THE DALLES     MOCLDY    44  36  73 SE3       30.30S
$$

ORZ029>031-041-044-049-050-061>064-502-503-505>511-100500-
EASTERN OREGON


CITY           SKY/WX    TMP DP  RH WIND       PRES   REMARKS
REDMOND        CLOUDY    38  34  85 CALM      30.25S
BEND           CLOUDY    45  34  65 SE7       30.25S
PRINEVILLE     NOT AVBL
KLAMATH FALLS  MOCLDY    39  31  72 CALM      30.28R
LAKEVIEW       CLOUDY    34  27  75 NW5       30.34S WCI  30
HERMISTON      MOCLDY    37  33  85 SW3       30.29R
PENDLETON      PTCLDY    37  34  89 E9        30.25F WCI  30
JOHN DAY       PTCLDY    48  29  47 SE14G21   30.28F
MEACHAM        CLEAR     38  29  70 VRB3      30.27F
LA GRANDE      PTCLDY    39  27  60 S23G29    30.34R WCI  29
BAKER CITY     PTCLDY    30  28  92 CALM      30.40R
BURNS          FOG       23  21  92 CALM      30.36F VSB 1/2
ROME             N/A     32  30  92 CALM      30.39R
ONTARIO        CLOUDY    36  31  82 CALM      30.50R
$$



USA.gov is the U.S. government's official web portal to all federal, state and local government web resources and services.